Location: Unspecified
(0.0000°N, 0.0000°E)
Time: 07:08:00
(UTC+00:00)

Vanguard 2 Rocket - Pass Details

Date: 12 October 2023
Orbit: 552 x 3312 km, 32.9° (Epoch: 06 December)

Event Time Altitude Azimuth Distance (km) Brightness Sun altitude
Rises 08:22:27 0° 320° (NW) 4,778 10.2 38.6°
Reaches altitude 10° 08:30:19 10° 356° (N) 4,633 10.5 40.5°
Maximum altitude 08:32:39 11° 7° (N) 4,808 10.7 41.1°
Drops below altitude 10° 08:35:10 10° 17° (NNE) 5,081 10.9 41.7°
Sets 08:46:48 0° 50° (NE) 6,902 11.8 44.6°
